Regional Weather Roundup
Issued by NWS Memphis, TN

Home | Current Version | Previous Version | Text Only | Print | Product List | Glossary On
Versions: 1 2 3 4 5 6 7 8 9 10 11 12 13 14 15 16 17 18 19 20 21 22 23 24 25 26 27 28 29 30 31 32 33 34 35 36 37 38 39 40 41 42 43 44 45 46 47 48 49 50
011
ASUS44 KMEG 130310
RWRMEG
MEMPHIS CWA HOURLY WEATHER ROUNDUP
NATIONAL WEATHER SERVICE MEMPHIS TN
900 PM CST FRI FEB 12 2016

...WEST TENNESSEE...

CITY           SKY/WX    TMP DP  RH WIND       PRES   REMARKS
MEMPHIS INTL   CLEAR     41  26  55 NE3       30.37R
NWS MEMPHIS      N/A     36 N/A N/A MISG        N/A
JACKSON        CLEAR     34  25  69 N10       30.38R WCI  26
LEXINGTON      CLEAR     34  23  64 N6        30.35R WCI  29
DYERSBURG      CLEAR     34  23  64 N7        30.42R WCI  28
UNION CITY     CLEAR     28  23  80 N9        30.40R WCI  20
PARIS          CLEAR     27  21  80 N6        30.39R WCI  20


...EASTERN ARKANSAS...

CITY           SKY/WX    TMP DP  RH WIND       PRES   REMARKS
JONESBORO      CLEAR     41  24  51 N12       30.41R
WEST MEMPHIS   HAZE      39  28  64 N6        30.38R VSB 3/4 WCI  35
BATESVILLE     CLEAR     43  21  42 NW5       30.42R
NEWPORT        CLEAR     40  26  57 N13       30.41R WCI  32
WALNUT RIDGE   CLEAR     37  19  48 NE12      30.42R WCI  30
BLYTHEVILLE    CLEAR     34  26  72 NE7       30.41R WCI  28
SEARCY         CLEAR     45  27  49 N9        30.40R
STUTTGART      CLEAR     45  32  61 NE8       30.38R
PINE BLUFF     PTCLDY    42  33  70 NE3       30.37R
MONTICELLO     PTCLDY    46  33  60 NE7       30.35R


...NORTH MISSISSIPPI...

CITY           SKY/WX    TMP DP  RH WIND       PRES   REMARKS
TUPELO         CLEAR     36  25  64 N7        30.35R WCI  30
OXFORD         CLEAR     37  27  65 CALM      30.37R
TUNICA         CLEAR     36  30  80 NE7       30.37R WCI  30
CORINTH        CLEAR     39  25  56 CALM      30.35S
GREENWOOD      CLEAR     40  32  73 CALM      30.36R
COLUMBUS       CLEAR     46  30  53 N16       30.33R
STARKVILLE     FAIR      46  30  53 N5        30.34R
GOLDEN TRIANGL CLEAR     46  27  46 N15       30.33R


...SOUTHEAST MISSOURI...

CITY           SKY/WX    TMP DP  RH WIND       PRES   REMARKS
WEST PLAINS    CLEAR     31  14  49 N7        30.43R WCI  24
POPLAR BLUFF   CLEAR     33  20  58 N12       30.42R WCI  24
CAPE GIRARDEAU CLEAR     28  16  60 N10       30.44R WCI  19


...NORTHWEST ALABAMA...

CITY           SKY/WX    TMP DP  RH WIND       PRES   REMARKS
MUSCLE SHOALS  CLEAR     40  25  55 N8        30.35R WCI  34


...MIDDLE TENNESSEE...

CITY           SKY/WX    TMP DP  RH WIND       PRES   REMARKS
NASHVILLE      MOCLDY    33  22  63 NW16G22   30.35R WCI  23
CLARKSVILLE    MOCLDY    31  21  66 NW12      30.38R WCI  22
COLUMBIA       CLEAR     34  27  75 N5        30.33R WCI  30


...WESTERN KENTUCKY...

CITY           SKY/WX    TMP DP  RH WIND       PRES   REMARKS
PADUCAH        CLEAR     28  17  63 N10       30.42R WCI  19
FORT CAMPBELL  MOCLDY    31  22  71 NW6       30.37R WCI  25


...CENTRAL ARKANSAS...

CITY           SKY/WX    TMP DP  RH WIND       PRES   REMARKS
LITTLE ROCK    PTCLDY    48  26  42 N9        30.38R


SKY/WX REPORTED AS FAIR MEANS FEW OR NO CLOUDS BELOW
12 THOUSAND FEET.





USA.gov is the U.S. government's official web portal to all federal, state and local government web resources and services.